Theta_e
311 311 312 311 310 307 306 306 308 308 312 315 315 315 314 312 312 312 311 310 310 310 310 310 312 311 312 317 316 315 320 320 319 318 319 315 315 314 311 313 312 311 312 312 309
313 312 312 311 310 308 306 307 307 308 311 313 313 316 315 312 312 312 310 311 310 310 310 312 315 313 316 315 317 318 320 319 316 316 317 317 315 314 314 316 316 314 314 311 310
315 312 311 311 310 309 307 307 308 308 310 312 313 316 315 314 315 313 312 316 316 311 310 310 311 315 318 314 315 316 320 315 315 314 314 315 315 312 314 316 314 313 312 312 312
316 311 311 310 310 310 309 309 308 308 309 312 313 316 313 313 317 311 314 316 314 311 310 311 315 318 318 318 313 317 315 314 314 313 313 314 312 314 312 314 312 311 312 314 311
317 311 311 309 309 310 311 310 309 308 310 312 313 315 315 316 314 312 314 315 312 310 309 312 315 316 318 317 315 315 315 312 311 311 311 310 313 311 312 312 312 313 313 312 307
316 312 310 308 309 310 311 311 310 308 310 312 313 316 314 318 312 311 316 313 312 309 310 311 313 312 316 315 315 313 312 313 310 310 309 312 312 310 312 312 312 312 311 307 305
316 312 310 308 308 310 312 312 311 309 310 312 314 315 317 316 311 315 313 311 310 309 311 308 309 313 314 316 311 310 313 315 313 312 310 310 313 312 313 312 310 312 308 305 304
317 312 310 307 308 309 312 312 311 310 310 313 315 315 317 312 312 315 312 312 308 308 308 306 307 310 311 310 312 313 314 314 314 313 309 313 313 314 312 309 310 309 306 304 303
318 312 310 306 306 307 309 314 312 309 311 315 314 315 317 314 315 313 311 308 307 307 306 305 308 310 312 317 317 317 316 314 312 313 312 313 315 313 310 308 309 307 304 302 302
317 312 310 305 304 306 308 314 312 310 311 314 314 316 315 316 313 311 309 307 309 308 310 313 312 315 316 315 316 318 317 314 313 312 313 314 315 312 309 308 306 304 302 301 301
317 311 309 302 302 305 307 311 311 315 310 315 314 314 313 314 311 309 307 308 309 313 314 313 310 317 314 312 313 314 315 315 311 312 313 312 312 310 307 305 303 302 300 299 300
316 311 308 301 302 304 305 313 311 308 315 311 313 313 313 311 311 310 308 312 313 314 315 311 308 313 311 311 313 313 312 310 312 312 310 310 309 307 306 301 300 300 298 298 298
317 311 306 300 303 305 305 308 310 311 313 311 311 314 313 309 310 311 309 310 313 313 314 309 306 310 311 312 311 309 311 313 312 309 308 307 306 306 305 301 298 298 298 297 297
318 312 304 300 303 306 309 306 311 309 317 316 313 314 308 308 311 306 304 309 312 312 310 307 310 311 311 311 309 310 309 308 306 305 305 305 304 306 307 300 297 297 297 296 296
318 313 302 299 301 308 306 308 310 305 333 314 314 308 308 309 309 310 305 308 311 308 305 306 309 309 311 309 309 312 304 304 303 304 305 304 305 308 307 300 296 297 296 296 295
318 316 302 302 303 306 305 311 305 320 328 316 314 313 312 307 309 310 308 307 306 308 308 307 306 308 310 308 305 301 302 303 304 305 306 303 300 302 301 296 295 296 295 294 294
318 316 302 299 304 305 309 305 323 324 316 316 312 312 310 311 309 309 307 308 307 304 306 308 309 306 304 306 305 301 304 303 305 308 306 301 298 299 296 295 294 294 294 293 294
318 315 302 301 304 305 307 314 326 322 320 310 311 310 312 308 309 307 305 307 305 309 309 307 306 309 304 301 300 303 304 300 300 302 302 299 299 301 295 295 295 294 293 293 293
317 308 300 302 305 307 306 314 325 318 314 310 311 313 308 310 307 305 304 304 306 306 306 305 305 300 297 299 300 303 301 299 297 297 299 298 298 298 295 294 294 293 292 292 292
310 302 300 304 306 304 305 313 311 311 310 310 318 315 317 312 311 305 303 304 303 300 300 304 302 300 297 297 295 295 296 298 298 295 296 296 295 295 294 294 293 292 292 291 292
305 300 301 306 308 310 305 306 305 304 310 311 313 314 311 311 310 307 303 301 301 297 300 298 299 298 295 295 296 294 294 293 292 293 295 294 295 294 293 293 292 292 291 291 292
301 303 305 309 311 310 308 304 303 306 307 309 309 310 311 311 307 304 304 303 299 296 298 295 296 296 294 293 292 293 295 292 292 292 292 293 293 294 293 293 292 291 291 292 292
305 303 308 308 310 308 307 308 307 310 309 309 309 309 307 307 308 306 304 296 295 295 295 294 294 297 294 293 292 292 292 292 292 292 293 293 294 294 294 292 291 290 291 292 291
304 305 309 309 310 309 312 310 309 309 309 308 307 304 300 302 300 301 301 295 294 293 294 294 293 295 296 295 292 291 291 291 292 293 293 294 294 294 292 291 290 291 291 290 289
306 307 306 312 309 311 311 313 313 312 308 305 302 303 303 303 301 301 299 295 295 294 295 293 293 293 293 293 293 293 291 291 291 291 291 292 292 292 291 290 290 291 290 288 289
315 307 305 308 313 310 310 311 310 311 307 306 305 302 300 306 304 301 298 297 297 293 294 293 293 292 293 292 292 292 292 292 292 292 292 293 294 291 290 290 290 290 287 288 286
307 302 307 317 312 312 316 313 314 310 307 307 303 301 300 303 300 297 298 298 295 294 294 293 292 293 296 291 291 292 292 292 291 291 290 289 290 289 290 290 289 287 287 285 283
Wind_Speed
20 21 23 25 26 27 28 27 29 32 26 22 21 20 7 8 11 11 10 7 10 13 9 6 1 3 2 3 3 1 2 3 2 2 4 1 6 2 2 8 5 3 5 15 18
20 21 23 25 27 27 28 28 29 31 27 21 24 19 7 8 9 16 10 13 12 11 7 7 5 4 2 1 1 2 2 3 0 1 7 12 6 8 5 12 5 8 9 14 21
19 21 24 26 27 28 29 28 28 30 28 20 21 12 4 8 2 5 10 15 12 10 5 4 3 2 1 1 1 0 2 3 0 3 5 9 12 1 7 8 13 13 17 18 21
18 21 24 25 26 27 28 28 29 30 30 22 21 8 7 4 1 4 12 16 8 4 3 4 3 2 1 2 1 5 3 3 1 1 4 9 8 7 5 9 11 9 12 16 21
18 21 24 25 27 28 27 27 28 31 28 20 19 6 4 5 2 5 13 10 7 3 6 3 2 0 3 3 3 3 4 1 3 6 7 7 7 4 4 6 11 18 18 18 18
18 21 24 26 27 27 27 27 30 33 25 19 17 4 3 4 1 6 11 6 11 8 6 5 2 1 1 2 3 2 9 13 1 5 2 4 7 4 5 10 20 15 14 16 17
18 21 24 26 27 27 28 26 30 30 24 20 9 4 7 5 1 6 10 8 10 7 3 2 1 2 1 2 2 3 7 7 5 3 5 4 5 2 6 18 18 14 14 15 16
18 20 23 26 27 27 26 27 31 25 18 18 5 4 4 1 2 6 9 2 7 7 4 5 3 2 2 3 2 3 3 6 7 4 7 11 11 12 13 15 13 11 13 13 16
18 20 23 25 26 26 25 28 24 21 14 8 4 3 4 1 2 8 10 5 4 5 4 3 1 2 2 5 5 2 9 14 11 2 2 5 16 10 16 14 12 12 13 12 12
18 19 22 25 25 25 25 24 21 9 13 4 6 3 1 1 4 8 6 7 4 3 3 2 2 2 2 8 8 12 10 10 19 7 15 10 13 19 15 14 10 11 11 15 16
20 18 21 23 22 20 23 12 9 2 12 2 6 3 4 7 1 4 8 2 2 1 6 4 5 3 5 6 8 8 12 20 21 19 12 12 18 22 7 11 11 12 13 15 15
20 19 20 21 19 15 15 7 3 1 8 1 1 5 5 4 1 5 7 2 4 8 4 5 7 2 5 4 6 11 16 20 13 5 13 21 19 6 10 12 11 10 15 17 18
19 18 19 18 12 9 13 6 1 1 3 3 2 2 2 2 2 3 5 1 1 7 2 5 4 3 2 8 8 13 11 11 14 18 17 17 11 5 11 9 12 11 14 17 20
18 17 18 13 3 5 3 7 2 3 3 2 1 2 1 0 2 2 3 1 2 2 3 7 2 1 5 6 4 10 7 12 19 20 16 16 10 8 10 7 12 13 15 18 22
17 16 17 8 2 2 2 3 4 1 5 2 2 1 1 1 2 2 2 2 5 3 3 2 1 3 4 4 2 4 11 13 23 23 15 5 6 3 8 7 15 16 17 20 25
16 16 14 3 1 1 2 3 2 2 7 1 1 1 2 2 1 6 1 5 2 2 1 3 1 2 2 2 3 9 10 22 9 5 5 9 4 7 6 5 11 16 20 26 29
15 15 13 4 2 2 3 2 2 5 1 3 2 1 1 3 4 3 3 1 3 4 4 2 1 1 2 2 2 9 10 7 5 2 5 8 9 7 8 7 12 17 22 28 28
15 14 11 6 4 3 3 1 6 3 6 2 1 1 5 3 3 0 2 5 3 2 2 4 5 3 2 0 2 2 2 2 7 6 16 15 6 3 8 8 13 17 23 25 26
14 10 7 6 7 8 2 4 6 6 2 4 2 4 3 2 2 3 5 4 3 7 7 6 5 3 4 1 1 5 5 3 4 2 6 6 5 12 8 14 16 22 24 24 27
4 3 6 9 10 5 3 8 7 4 5 2 6 6 7 4 4 3 5 5 6 4 2 3 4 3 5 1 6 2 5 2 3 4 7 10 18 8 14 15 24 29 27 27 28
3 1 5 11 10 2 7 8 6 5 6 8 7 10 9 6 9 5 5 4 6 6 5 5 4 4 2 9 7 4 4 2 0 3 4 7 9 6 12 11 27 27 27 27 29
6 3 9 17 4 3 7 6 6 6 3 7 3 9 11 9 6 7 10 7 8 9 7 5 4 4 4 8 8 9 8 7 4 5 8 7 14 10 2 21 23 26 26 28 30
3 2 7 4 6 7 4 6 6 9 9 12 11 11 7 9 5 10 5 3 8 8 8 8 4 2 2 2 2 7 8 7 7 4 14 6 8 9 20 24 25 26 27 27 31
3 3 3 3 3 9 12 10 11 10 11 8 4 5 5 7 5 4 8 5 6 4 3 3 5 10 11 9 2 5 11 13 14 7 8 18 26 28 22 24 26 28 28 29 28
4 6 6 6 10 17 15 8 16 12 11 11 6 16 11 7 6 7 6 7 5 7 6 4 6 8 13 15 13 16 19 18 21 20 13 18 19 24 22 21 26 27 28 28 28
7 4 2 4 6 19 20 19 27 17 14 11 15 15 13 19 14 11 14 9 6 7 8 5 3 1 4 12 15 18 18 20 18 19 22 23 28 20 20 18 24 27 26 25 28
13 3 4 12 11 13 22 31 27 19 11 17 20 12 13 15 6 2 2 5 9 11 12 8 5 2 7 2 6 12 20 21 11 9 15 15 18 16 21 21 20 26 23 25 27
Wind_Direction
14 9 9 7 6 5 4 4 7 7 7 7 5 351 26 96 78 60 48 353 345 348 344 340 339 17 74 74 37 324 214 210 221 195 348 358 328 38 261 278 276 235 296 333 319
8 5 4 4 3 1 1 1 3 360 1 5 0 357 135 127 66 54 19 5 354 350 350 7 8 2 97 87 97 249 245 171 31 28 317 316 322 326 293 320 311 307 357 331 334
3 2 1 1 0 357 357 357 356 353 357 3 3 7 86 170 65 11 2 352 339 343 355 8 359 18 93 335 28 280 269 140 201 298 312 306 327 65 303 340 13 343 336 336 349
359 360 359 357 356 353 353 352 349 351 348 0 4 25 76 114 20 335 346 345 355 350 11 352 4 23 349 262 37 280 260 212 132 171 303 297 328 323 296 336 345 347 336 345 18
354 356 356 354 352 351 351 348 343 346 342 357 2 26 104 72 82 326 340 7 10 6 36 22 40 37 285 293 304 246 306 105 157 295 270 297 295 307 286 13 344 345 358 21 38
349 353 352 351 350 349 347 345 340 339 341 355 358 49 97 94 258 335 345 8 25 29 15 16 22 326 261 258 259 324 292 291 157 143 204 326 310 323 73 349 346 1 32 63 45
346 349 349 348 348 348 346 343 335 334 339 352 359 94 66 87 5 2 3 21 25 32 349 352 323 250 93 274 341 305 302 310 138 87 145 272 308 200 27 350 338 30 76 54 42
342 345 347 347 347 348 345 339 331 332 340 352 40 93 77 32 24 5 11 349 24 26 44 338 13 67 349 332 255 275 236 341 347 25 143 347 300 321 347 335 20 78 71 48 40
338 343 347 346 347 347 345 338 324 333 352 20 53 44 111 20 22 353 7 356 5 28 40 317 59 35 214 319 280 7 318 325 324 308 38 343 296 311 341 355 80 73 61 43 31
336 340 345 346 347 348 346 339 324 339 360 87 57 123 116 283 313 339 353 6 23 347 299 321 360 300 32 8 317 306 310 307 309 293 333 308 280 316 347 90 88 77 46 27 17
335 338 345 346 347 353 355 1 357 356 36 46 311 278 308 314 261 22 352 21 33 32 356 32 323 324 11 333 289 295 297 304 310 330 338 325 313 321 4 83 78 57 33 14 4
334 337 345 345 345 2 21 66 79 279 307 135 273 289 275 316 12 30 5 13 23 350 337 315 292 29 310 299 306 309 306 307 306 324 335 316 319 330 81 86 60 52 20 13 2
334 339 346 344 343 2 58 68 114 148 275 309 218 267 277 255 91 4 3 70 27 332 254 271 308 355 324 306 320 310 308 316 304 318 296 325 297 347 114 78 46 41 16 10 5
332 339 344 346 24 9 63 3 122 158 282 220 195 169 203 201 137 12 24 322 225 270 272 270 341 295 299 288 328 300 355 312 312 320 310 342 291 324 165 51 25 14 7 0 354
330 335 342 351 321 61 342 6 124 163 307 174 148 111 9 273 320 122 27 213 242 228 192 276 253 285 287 346 330 332 330 309 301 293 309 295 235 225 244 360 4 3 356 352 350
324 330 336 319 331 135 336 134 143 259 251 185 91 295 238 33 33 325 45 47 34 176 275 298 336 285 345 90 60 325 330 307 294 283 248 129 348 255 343 24 359 355 354 348 344
312 323 320 263 209 246 149 192 284 220 54 188 178 32 62 281 313 40 10 289 249 249 225 316 127 98 12 196 191 360 350 320 309 275 285 169 327 313 96 43 13 356 350 339 334
295 315 300 249 204 189 168 163 220 227 242 97 144 211 258 4 227 280 193 238 205 222 150 237 220 210 42 154 328 108 163 231 277 302 296 295 220 177 135 23 8 356 342 330 329
282 301 272 237 194 177 205 211 241 205 166 176 205 269 218 257 263 280 224 239 180 195 207 182 240 133 38 244 289 147 216 38 265 207 280 255 231 182 38 354 349 336 334 329 329
260 275 238 196 176 162 193 231 231 204 143 150 262 203 269 198 229 216 210 156 188 208 274 174 260 191 139 51 52 263 113 160 186 279 289 282 297 266 355 343 337 336 333 332 327
203 232 189 168 152 190 220 220 229 212 160 187 221 252 244 268 231 236 237 169 183 158 179 161 235 153 170 201 209 159 178 154 246 246 261 294 287 33 343 342 335 329 330 329 323
167 226 171 156 182 210 223 202 181 191 193 241 232 235 242 220 222 227 228 219 165 164 185 174 176 218 259 311 255 230 198 178 195 222 236 287 275 306 287 339 328 324 327 324 317
201 183 178 188 216 222 232 243 231 176 195 196 223 207 186 193 230 215 191 126 162 172 170 179 197 229 186 168 169 203 189 195 226 244 236 243 259 206 334 324 325 324 328 323 319
133 198 183 207 256 239 234 227 229 212 242 213 204 135 147 203 228 193 179 172 182 177 136 180 200 235 258 305 136 202 203 214 206 221 259 233 269 289 312 322 324 325 328 322 321
153 221 185 209 228 230 231 248 225 221 215 182 216 217 195 209 188 232 187 167 193 193 172 216 235 243 260 274 268 264 260 244 232 238 246 269 280 286 306 327 321 322 323 321 325
201 170 192 258 240 205 212 228 232 226 186 212 232 194 194 217 191 192 177 177 191 178 173 193 229 292 271 265 261 260 259 253 240 244 248 261 273 285 320 318 322 321 322 327 327
201 180 156 232 208 214 220 234 237 222 216 242 208 177 200 215 201 38 77 212 170 162 182 177 183 168 279 54 319 273 242 240 227 215 233 249 261 320 310 318 324 317 328 329 324